This demonstration page uses our WeatherBlox Daily Observations layout. Learn more.

Left ArrowRight Arrow

Hourly Observations for May 12, 2018

Temp ( °F °C ) Dew Point ( °F °C ) Humidity (%) Winds ( mph kmh ) Pressure ( in mb ) Visibility ( mi km ) Precip ( " mm )
12:00 am 00:00 Cloudy with Mist and Fog 55 13 54 12 94 94 NE 17 28 29.85 1011 5 8 0.00 0.00
12:22 am 00:22 Cloudy with Mist and Fog 55 12.8 54 12.2 96 96 NE 17 28 29.88 1012 5 8 0.00 0.00
12:53 am 00:53 Cloudy with Mist and Fog 54 12.2 53 11.7 97 97 NE 20 31 29.87 1012 5 8 0.00 0.00
1:45 am 01:45 Cloudy with Nearby Thunderstorms 53 11.7 52 11.1 96 96 ENE 22 35 29.83 1010 5 8 0.00 0.00
1:53 am 01:53 Cloudy with Nearby Thunderstorms 53 11.7 52 11.1 96 96 NE 20 31 29.85 1011 5 8 0.00 0.00
2:02 am 02:02 Cloudy with Thunderstorms 54 12 52 11 94 94 NNE 18 30 29.88 1012 5 8 0.00 0.00
2:14 am 02:14 Cloudy with Strong Thunderstorms 52 11 52 11 100 100 ENE 16 26 29.88 1012 2 3 0.00 0.00
2:29 am 02:29 Cloudy with Thunderstorms 52 11.1 52 11.1 100 100 NE 16 26 29.85 1011 3 5 0.27 6.86
2:48 am 02:48 Cloudy with Mist and Fog 52 11 52 11 100 100 ENE 14 22 29.85 1011 3 5 0.00 0.00
3:23 am 03:23 Cloudy with Mist and Fog 51 10.6 51 10.6 100 100 NE 20 31 29.83 1010 3 4 0.00 0.00
3:53 am 03:53 Cloudy with Mist and Fog 51 10.6 51 10.6 100 100 ENE 18 30 29.83 1010 3 4 0.00 0.00
4:08 am 04:08 Cloudy with Mist and Fog 50 10 50 10 100 100 ENE 17 28 29.83 1010 2 2 0.00 0.00
4:23 am 04:23 Cloudy with Mist and Fog 50 10 50 10 100 100 NE 17 28 29.85 1011 2 3 0.00 0.00
4:50 am 04:50 Cloudy with Mist and Fog 50 10 50 10 100 100 NE 17 28 29.85 1011 2 3 0.00 0.00
4:53 am 04:53 Cloudy with Mist and Fog 50 10 50 10 100 100 NE 17 28 29.85 1011 2 3 0.00 0.00
5:53 am 05:53 Cloudy with Mist and Fog 49 9.4 49 9.4 100 100 NE 20 31 29.88 1012 2 2 0.00 0.00
6:53 am 06:53 Cloudy with Mist and Fog 48 8.9 48 8.9 100 100 NE 18 30 29.90 1013 1 2 0.00 0.00
7:08 am 07:08 Cloudy with Mist and Fog 48 9 48 9 100 100 NE 18 30 29.94 1014 1 1 0.00 0.00
7:53 am 07:53 Cloudy with Fog 48 8.9 48 8.9 100 100 NE 22 35 29.92 1013 1 1 0.00 0.00
8:53 am 08:53 Cloudy with Mist and Fog 48 8.9 48 8.9 100 100 NE 17 28 29.93 1014 1 1 0.00 0.00
9:17 am 09:17 Cloudy with Mist and Fog 48 9 48 9 100 100 NE 17 28 29.97 1015 1 2 0.00 0.00
9:50 am 09:50 Cloudy with Mist and Fog 48 9 48 9 100 100 NE 16 26 29.97 1015 2 3 0.00 0.00
9:53 am 09:53 Cloudy with Mist and Fog 49 9.4 49 9.4 100 100 NE 15 24 29.95 1014 2 3 0.00 0.00
10:14 am 10:14 Cloudy with Mist and Fog 48 9 48 9 100 100 NE 15 24 29.97 1015 2 2 0.00 0.00
10:39 am 10:39 Cloudy with Mist and Fog 49 9.4 49 9.4 100 100 NE 15 24 29.97 1015 1 1 0.00 0.00
10:53 am 10:53 Cloudy with Mist and Fog 49 9.4 49 9.4 100 100 NE 15 24 29.94 1014 1 1 0.00 0.00
11:53 am 11:53 Cloudy with Mist and Fog 49 9.4 49 9.4 100 100 NNE 14 22 29.95 1014 1 2 0.00 0.00
12:27 pm 12:27 Cloudy with Mist and Fog 50 10 50 10 100 100 NNE 16 26 29.94 1014 2 3 0.00 0.00
12:37 pm 12:37 Cloudy with Mist and Fog 50 10 50 10 100 100 NE 15 24 29.94 1014 2 2 0.00 0.00
12:50 pm 12:50 Cloudy with Mist and Fog 50 10 50 10 100 100 NNE 14 22 29.94 1014 3 4 0.00 0.00
12:53 pm 12:53 Cloudy with Mist and Fog 50 10 50 10 100 100 NNE 14 22 29.96 1014 3 4 0.00 0.00
1:53 pm 13:53 Cloudy with Mist and Fog 50 10 50 10 100 100 NNE 15 24 29.96 1015 2 3 0.00 0.00
2:53 pm 14:53 Cloudy with Mist and Fog 50 10 50 10 100 100 N 14 22 29.97 1015 3 4 0.00 0.00
3:03 pm 15:03 Cloudy with Mist and Fog 50 10 50 10 100 100 NNE 15 24 29.97 1015 3 5 0.00 0.00
3:53 pm 15:53 Cloudy with Mist and Fog 51 10.6 50 10 96 96 NNE 15 24 29.98 1015 5 8 0.00 0.00
4:14 pm 16:14 Cloudy with Mist and Fog 52 11 50 10 94 94 NNE 14 22 29.97 1015 6 10 0.00 0.00
4:24 pm 16:24 Cloudy with Mist and Fog 52 11 52 11 100 100 NNE 15 24 29.97 1015 5 8 0.00 0.00
4:53 pm 16:53 Cloudy 51 10.6 50 10 96 96 NNE 14 22 29.97 1015 8 13 0.00 0.00
5:02 pm 17:02 Cloudy 51 10.6 50 10 96 96 NNE 15 24 29.97 1015 8 13 0.00 0.00
5:14 pm 17:14 Cloudy 52 11 50 10 94 94 NNE 15 24 29.97 1015 9 14 0.00 0.00
5:37 pm 17:37 Cloudy 52 11.1 50 10 93 93 NNE 14 22 29.97 1015 10 16 0.00 0.00
5:53 pm 17:53 Cloudy 52 11.1 50 10 93 93 NNE 14 22 29.97 1015 10 16 0.00 0.00
6:53 pm 18:53 Cloudy 51 10.6 50 10 96 96 NNE 14 22 29.98 1015 7 11 0.00 0.00
7:53 pm 19:53 Cloudy 50 10 49 9.4 96 96 NNE 14 22 29.98 1015 7 11 0.00 0.00
8:21 pm 20:21 Cloudy with Mist and Fog 50 10 50 10 100 100 NNE 12 19 29.97 1015 4 6 0.00 0.00
8:53 pm 20:53 Cloudy 50 10 49 9.4 96 96 NNE 13 20 29.99 1016 7 11 0.00 0.00
9:18 pm 21:18 Cloudy 50 10 49 9.4 96 96 NE 13 20 29.97 1015 9 14 0.00 0.00
9:51 pm 21:51 Cloudy with Mist and Fog 50 10 48 9 94 94 NNE 12 19 30.03 1017 6 10 0.00 0.00
9:53 pm 21:53 Cloudy 50 10 49 9.4 96 96 NNE 12 19 30.01 1016 7 11 0.00 0.00
10:15 pm 22:15 Cloudy 50 10 49 9.4 96 96 NNE 9 15 30.03 1017 7 11 0.00 0.00
10:35 pm 22:35 Cloudy with Mist and Fog 50 10 49 9.4 96 96 NNE 12 19 30.03 1017 4 6 0.00 0.00
10:53 pm 22:53 Cloudy with Mist and Fog 49 9.4 49 9.4 100 100 NNE 12 19 30.01 1016 3 5 0.00 0.00
11:01 pm 23:01 Cloudy with Mist and Fog 49 9.4 49 9.4 100 100 NNE 12 19 30.03 1017 2 3 0.00 0.00
11:38 pm 23:38 Mostly Cloudy with Mist and Fog 48 9 48 9 100 100 NNE 13 20 30.03 1017 1 1 0.00 0.00
11:53 pm 23:53 Mostly Cloudy with Mist and Fog 49 9.4 49 9.4 100 100 NNE 10 17 30.02 1017 1 1 0.00 0.00

Powered by AerisWeather